Time,TemperatureF,DewpointF,PressureIn,WindDirection,WindDirectionDegrees,WindSpeedMPH,WindSpeedGustMPH,Humidity,HourlyPrecipIn,Conditions,Clouds,dailyrainin,SoftwareType,DateUTC
2013-11-06 00:02:00,76.0,66.2,30.14,South,180,2.7,4.6,70,0.00,,,0.00,JAVA,2013-11-06 05:02:00,
2013-11-06 00:03:00,76.0,66.2,30.14,South,180,2.6,4.6,70,0.00,,,0.00,JAVA,2013-11-06 05:03:00,
2013-11-06 00:04:00,76.1,66.2,30.14,South,180,2.6,4.6,70,0.00,,,0.00,JAVA,2013-11-06 05:04:00,
2013-11-06 00:09:00,76.0,66.2,30.14,ENE,67,1.6,4.4,70,0.00,,,0.00,JAVA,2013-11-06 05:09:00,
2013-11-06 00:10:00,76.0,66.1,30.14,ESE,112,1.6,3.0,70,0.00,,,0.00,JAVA,2013-11-06 05:10:00,
2013-11-06 00:14:00,76.0,66.1,30.13,ESE,112,2.3,4.6,70,0.00,,,0.00,JAVA,2013-11-06 05:14:00,
2013-11-06 00:19:00,76.1,66.1,30.13,SE,135,2.7,5.1,70,0.00,,,0.00,JAVA,2013-11-06 05:19:00,
2013-11-06 00:25:00,76.2,66.1,30.13,NNE,22,2.5,5.1,70,0.00,,,0.00,JAVA,2013-11-06 05:25:00,
2013-11-06 00:30:00,76.2,66.1,30.13,NNE,22,2.4,4.9,70,0.00,,,0.00,JAVA,2013-11-06 05:30:00,
2013-11-06 00:35:00,76.1,66.0,30.13,East,90,2.2,4.9,70,0.00,,,0.00,JAVA,2013-11-06 05:35:00,
2013-11-06 00:41:00,76.0,66.0,30.13,SE,135,1.8,4.1,70,0.00,,,0.00,JAVA,2013-11-06 05:41:00,
2013-11-06 00:46:00,76.0,66.0,30.13,East,90,1.4,3.0,70,0.00,,,0.00,JAVA,2013-11-06 05:46:00,
2013-11-06 00:52:00,76.0,66.0,30.13,SE,135,1.7,3.0,70,0.00,,,0.00,JAVA,2013-11-06 05:52:00,
2013-11-06 00:57:00,75.9,65.9,30.13,East,90,1.7,3.8,70,0.00,,,0.00,JAVA,2013-11-06 05:57:00,
2013-11-06 01:02:00,75.8,65.9,30.13,NNE,22,1.8,3.8,70,0.00,,,0.00,JAVA,2013-11-06 06:02:00,
2013-11-06 01:08:00,75.9,65.9,30.12,South,180,1.7,3.3,70,0.00,,,0.00,JAVA,2013-11-06 06:08:00,
2013-11-06 01:13:00,75.9,65.9,30.12,ESE,112,1.9,3.5,70,0.00,,,0.00,JAVA,2013-11-06 06:13:00,
2013-11-06 01:19:00,75.9,65.8,30.12,East,90,2.1,3.5,70,0.00,,,0.00,JAVA,2013-11-06 06:19:00,
2013-11-06 01:24:00,76.0,65.8,30.12,South,180,1.4,3.1,70,0.00,,,0.00,JAVA,2013-11-06 06:24:00,
2013-11-06 01:30:00,76.0,65.8,30.11,South,180,1.9,4.6,70,0.00,,,0.00,JAVA,2013-11-06 06:30:00,
2013-11-06 01:35:00,76.1,65.8,30.11,SE,135,1.9,4.6,70,0.00,,,0.00,JAVA,2013-11-06 06:35:00,
2013-11-06 01:40:00,76.1,65.8,30.11,East,90,1.8,3.0,70,0.00,,,0.00,JAVA,2013-11-06 06:40:00,
2013-11-06 01:46:00,76.0,65.8,30.12,ESE,112,2.3,3.3,70,0.00,,,0.00,JAVA,2013-11-06 06:46:00,
2013-11-06 01:51:00,76.0,65.8,30.11,East,90,2.3,3.8,70,0.00,,,0.00,JAVA,2013-11-06 06:51:00,
2013-11-06 01:57:00,75.9,65.8,30.11,SE,135,2.0,3.8,70,0.00,,,0.00,JAVA,2013-11-06 06:57:00,
2013-11-06 02:02:00,75.9,65.7,30.11,SE,135,1.7,2.8,70,0.00,,,0.00,JAVA,2013-11-06 07:02:00,
2013-11-06 02:08:00,75.9,65.7,30.11,SE,135,2.2,3.5,70,0.00,,,0.00,JAVA,2013-11-06 07:08:00,
2013-11-06 02:13:00,75.9,65.7,30.10,SE,135,1.8,3.5,70,0.00,,,0.00,JAVA,2013-11-06 07:13:00,
2013-11-06 02:18:00,75.8,65.7,30.11,ENE,67,1.8,3.3,70,0.00,,,0.00,JAVA,2013-11-06 07:18:00,
2013-11-06 02:24:00,75.9,65.7,30.10,North,0,1.8,3.0,70,0.00,,,0.00,JAVA,2013-11-06 07:24:00,
2013-11-06 02:29:00,75.8,65.6,30.10,SE,135,1.4,2.8,69,0.00,,,0.00,JAVA,2013-11-06 07:29:00,
2013-11-06 02:35:00,75.7,65.6,30.10,SE,135,1.5,1.9,69,0.00,,,0.00,JAVA,2013-11-06 07:35:00,
2013-11-06 02:40:00,75.7,65.6,30.09,ESE,112,1.6,2.5,69,0.00,,,0.00,JAVA,2013-11-06 07:40:00,
2013-11-06 02:45:00,75.5,65.6,30.09,ESE,112,1.6,2.6,70,0.00,,,0.00,JAVA,2013-11-06 07:45:00,
2013-11-06 02:51:00,75.5,65.5,30.09,SE,135,1.3,2.6,70,0.00,,,0.00,JAVA,2013-11-06 07:51:00,
2013-11-06 02:56:00,75.7,65.5,30.09,NE,45,1.0,2.7,70,0.00,,,0.00,JAVA,2013-11-06 07:56:00,
2013-11-06 03:02:00,75.5,65.5,30.09,NE,45,1.1,2.7,70,0.00,,,0.00,JAVA,2013-11-06 08:02:00,
2013-11-06 03:07:00,75.5,65.5,30.09,East,90,1.5,3.2,70,0.00,,,0.00,JAVA,2013-11-06 08:07:00,
2013-11-06 03:13:00,75.5,65.4,30.09,SSW,202,1.8,3.2,70,0.00,,,0.00,JAVA,2013-11-06 08:13:00,
2013-11-06 03:18:00,75.5,65.4,30.09,WNW,292,1.4,2.5,70,0.00,,,0.00,JAVA,2013-11-06 08:18:00,
2013-11-06 03:23:00,75.5,65.4,30.09,South,180,1.6,2.5,70,0.00,,,0.00,JAVA,2013-11-06 08:23:00,
2013-11-06 03:29:00,75.5,65.3,30.08,East,90,1.3,2.5,70,0.00,,,0.00,JAVA,2013-11-06 08:29:00,
2013-11-06 03:34:00,75.5,65.3,30.09,NE,45,1.1,2.5,70,0.00,,,0.00,JAVA,2013-11-06 08:34:00,
2013-11-06 03:40:00,75.4,65.3,30.09,East,90,1.2,2.5,70,0.00,,,0.00,JAVA,2013-11-06 08:40:00,
2013-11-06 03:45:00,75.5,65.3,30.09,East,90,0.9,2.4,70,0.00,,,0.00,JAVA,2013-11-06 08:45:00,
2013-11-06 03:50:00,75.4,65.3,30.09,North,0,1.3,2.7,70,0.00,,,0.00,JAVA,2013-11-06 08:50:00,
2013-11-06 03:56:00,75.3,65.3,30.09,SE,135,1.5,2.7,71,0.00,,,0.00,JAVA,2013-11-06 08:56:00,
2013-11-06 04:01:00,75.3,65.3,30.09,East,90,1.6,3.1,71,0.00,,,0.00,JAVA,2013-11-06 09:01:00,
2013-11-06 04:07:00,75.4,65.3,30.09,ESE,112,2.0,3.1,71,0.00,,,0.00,JAVA,2013-11-06 09:07:00,
2013-11-06 04:12:00,75.3,65.3,30.09,ENE,67,1.7,3.0,71,0.00,,,0.00,JAVA,2013-11-06 09:12:00,
2013-11-06 04:17:00,75.3,65.3,30.09,SE,135,1.5,3.2,71,0.00,,,0.00,JAVA,2013-11-06 09:17:00,
2013-11-06 04:23:00,75.3,65.3,30.09,East,90,1.3,3.2,71,0.00,,,0.00,JAVA,2013-11-06 09:23:00,
2013-11-06 04:28:00,75.3,65.3,30.08,SE,135,1.2,2.0,71,0.00,,,0.00,JAVA,2013-11-06 09:28:00,
2013-11-06 04:34:00,75.3,65.4,30.09,ESE,112,1.4,3.3,71,0.00,,,0.00,JAVA,2013-11-06 09:34:00,
2013-11-06 04:39:00,75.3,65.4,30.09,East,90,1.8,3.4,71,0.00,,,0.00,JAVA,2013-11-06 09:39:00,
2013-11-06 04:45:00,75.3,65.4,30.09,East,90,2.3,3.4,71,0.00,,,0.00,JAVA,2013-11-06 09:45:00,
2013-11-06 04:50:00,75.5,65.4,30.09,SE,135,2.2,4.6,71,0.00,,,0.00,JAVA,2013-11-06 09:50:00,
2013-11-06 04:55:00,75.4,65.4,30.09,SE,135,1.8,4.6,71,0.00,,,0.00,JAVA,2013-11-06 09:55:00,
2013-11-06 05:01:00,75.3,65.4,30.09,SE,135,2.0,4.0,71,0.00,,,0.00,JAVA,2013-11-06 10:01:00,
2013-11-06 05:06:00,75.4,65.5,30.09,ENE,67,1.9,3.2,71,0.00,,,0.00,JAVA,2013-11-06 10:06:00,
2013-11-06 05:12:00,75.5,65.5,30.09,SE,135,1.9,3.2,71,0.00,,,0.00,JAVA,2013-11-06 10:12:00,
2013-11-06 05:17:00,75.5,65.5,30.09,East,90,2.3,3.2,71,0.00,,,0.00,JAVA,2013-11-06 10:17:00,
2013-11-06 05:23:00,75.5,65.5,30.09,NNE,22,2.4,3.2,70,0.00,,,0.00,JAVA,2013-11-06 10:23:00,
2013-11-06 05:28:00,75.5,65.5,30.09,SE,135,2.1,3.2,70,0.00,,,0.00,JAVA,2013-11-06 10:28:00,
2013-11-06 05:33:00,75.5,65.5,30.10,ESE,112,1.8,3.5,70,0.00,,,0.00,JAVA,2013-11-06 10:33:00,
2013-11-06 05:39:00,75.5,65.5,30.09,ENE,67,2.2,4.0,70,0.00,,,0.00,JAVA,2013-11-06 10:39:00,
2013-11-06 05:44:00,75.4,65.5,30.10,SE,135,2.5,4.0,69,0.00,,,0.00,JAVA,2013-11-06 10:44:00,
2013-11-06 05:50:00,75.5,65.5,30.09,NE,45,2.3,3.6,69,0.00,,,0.00,JAVA,2013-11-06 10:50:00,
2013-11-06 05:55:00,75.5,65.4,30.10,SSE,157,1.8,3.6,69,0.00,,,0.00,JAVA,2013-11-06 10:55:00,
2013-11-06 06:00:00,75.4,65.4,30.10,East,90,2.1,3.5,69,0.00,,,0.00,JAVA,2013-11-06 11:00:00,
2013-11-06 06:06:00,75.4,65.4,30.10,South,180,1.9,3.5,69,0.00,,,0.00,JAVA,2013-11-06 11:06:00,
2013-11-06 06:11:00,75.5,65.3,30.10,East,90,1.4,2.9,69,0.00,,,0.00,JAVA,2013-11-06 11:11:00,
2013-11-06 06:17:00,75.4,65.3,30.10,NE,45,1.4,2.3,69,0.00,,,0.00,JAVA,2013-11-06 11:17:00,
2013-11-06 06:22:00,75.4,65.2,30.10,NW,315,1.3,2.9,68,0.00,,,0.00,JAVA,2013-11-06 11:22:00,
2013-11-06 06:27:00,75.4,65.2,30.10,SE,135,1.5,2.9,68,0.00,,,0.00,JAVA,2013-11-06 11:27:00,
2013-11-06 06:33:00,75.5,65.1,30.11,ESE,112,1.8,2.7,69,0.00,,,0.00,JAVA,2013-11-06 11:33:00,
2013-11-06 06:38:00,75.4,65.1,30.11,East,90,1.7,2.7,69,0.00,,,0.00,JAVA,2013-11-06 11:38:00,
2013-11-06 06:44:00,75.3,65.0,30.11,East,90,1.5,2.3,69,0.00,,,0.00,JAVA,2013-11-06 11:44:00,
2013-11-06 06:49:00,75.3,65.0,30.12,SE,135,1.6,2.3,69,0.00,,,0.00,JAVA,2013-11-06 11:49:00,
2013-11-06 06:54:00,75.3,65.0,30.12,ESE,112,1.2,2.3,69,0.00,,,0.00,JAVA,2013-11-06 11:54:00,
2013-11-06 07:00:00,75.3,64.9,30.12,SE,135,0.9,1.6,69,0.00,,,0.00,JAVA,2013-11-06 12:00:00,
2013-11-06 07:05:00,75.3,64.9,30.12,NNE,22,0.6,1.3,69,0.00,,,0.00,JAVA,2013-11-06 12:05:00,
2013-11-06 07:11:00,75.4,64.8,30.12,ESE,112,0.5,1.6,69,0.00,,,0.00,JAVA,2013-11-06 12:11:00,
2013-11-06 07:16:00,75.5,64.8,30.12,ESE,112,0.9,1.7,69,0.00,,,0.00,JAVA,2013-11-06 12:16:00,
2013-11-06 07:22:00,75.8,64.8,30.13,ESE,112,1.0,1.7,69,0.00,,,0.00,JAVA,2013-11-06 12:22:00,
2013-11-06 07:27:00,76.1,64.8,30.12,SE,135,1.2,2.0,69,0.00,,,0.00,JAVA,2013-11-06 12:27:00,
2013-11-06 07:32:00,76.6,64.9,30.12,SE,135,1.2,2.3,70,0.00,,,0.00,JAVA,2013-11-06 12:32:00,
2013-11-06 07:38:00,76.9,64.9,30.13,SE,135,1.5,3.6,70,0.00,,,0.00,JAVA,2013-11-06 12:38:00,
2013-11-06 07:43:00,77.1,65.0,30.13,SE,135,1.7,3.6,70,0.00,,,0.00,JAVA,2013-11-06 12:43:00,
2013-11-06 07:49:00,77.4,65.1,30.13,NNE,22,1.3,2.7,70,0.00,,,0.00,JAVA,2013-11-06 12:49:00,
2013-11-06 07:54:00,77.9,65.2,30.13,SE,135,1.1,1.4,70,0.00,,,0.00,JAVA,2013-11-06 12:54:00,
2013-11-06 08:00:00,78.2,65.4,30.13,SSE,157,1.3,2.8,69,0.00,,,0.00,JAVA,2013-11-06 13:00:00,
2013-11-06 08:05:00,78.6,65.5,30.13,SE,135,1.6,2.8,69,0.00,,,0.00,JAVA,2013-11-06 13:05:00,
2013-11-06 08:10:00,78.7,65.7,30.13,SE,135,2.3,3.4,69,0.00,,,0.00,JAVA,2013-11-06 13:10:00,
2013-11-06 08:16:00,78.8,65.9,30.13,ESE,112,2.2,3.6,69,0.00,,,0.00,JAVA,2013-11-06 13:16:00,
2013-11-06 08:21:00,79.3,66.0,30.13,SSE,157,1.8,3.6,68,0.00,,,0.00,JAVA,2013-11-06 13:21:00,
2013-11-06 08:27:00,79.5,66.2,30.14,ESE,112,1.8,2.4,68,0.00,,,0.00,JAVA,2013-11-06 13:27:00,
2013-11-06 08:32:00,79.8,66.4,30.13,ESE,112,1.7,2.4,68,0.00,,,0.00,JAVA,2013-11-06 13:32:00,
2013-11-06 08:38:00,80.0,66.6,30.13,SE,135,1.6,2.1,67,0.00,,,0.00,JAVA,2013-11-06 13:38:00,
2013-11-06 08:43:00,80.2,66.8,30.13,SE,135,1.7,2.9,67,0.00,,,0.00,JAVA,2013-11-06 13:43:00,
2013-11-06 08:48:00,80.6,67.0,30.13,SSE,157,1.3,2.9,66,0.00,,,0.00,JAVA,2013-11-06 13:48:00,
2013-11-06 08:54:00,80.8,67.2,30.13,SE,135,1.4,2.0,66,0.00,,,0.00,JAVA,2013-11-06 13:54:00,
2013-11-06 08:59:00,80.8,67.3,30.13,East,90,1.5,2.6,65,0.00,,,0.00,JAVA,2013-11-06 13:59:00,
2013-11-06 09:05:00,80.7,67.5,30.13,ESE,112,1.5,2.9,65,0.00,,,0.00,JAVA,2013-11-06 14:05:00,
2013-11-06 09:10:00,80.7,67.7,30.13,ESE,112,1.7,2.9,64,0.00,,,0.00,JAVA,2013-11-06 14:10:00,
2013-11-06 09:15:00,80.7,67.8,30.14,North,0,1.8,3.0,64,0.00,,,0.00,JAVA,2013-11-06 14:15:00,
2013-11-06 09:21:00,80.9,67.9,30.14,East,90,1.6,3.0,63,0.00,,,0.00,JAVA,2013-11-06 14:21:00,
2013-11-06 09:26:00,81.2,67.9,30.13,East,90,1.6,2.9,63,0.00,,,0.00,JAVA,2013-11-06 14:26:00,
2013-11-06 09:32:00,81.3,68.0,30.13,ENE,67,1.7,2.9,62,0.00,,,0.00,JAVA,2013-11-06 14:32:00,
2013-11-06 09:37:00,81.7,68.0,30.13,SSE,157,0.7,2.2,62,0.00,,,0.00,JAVA,2013-11-06 14:37:00,
2013-11-06 09:43:00,82.1,68.0,30.13,SE,135,0.5,1.9,62,0.00,,,0.00,JAVA,2013-11-06 14:43:00,
2013-11-06 09:48:00,82.2,68.1,30.13,ESE,112,0.7,2.2,61,0.00,,,0.00,JAVA,2013-11-06 14:48:00,
2013-11-06 09:53:00,82.7,68.1,30.13,NNE,22,0.7,2.2,61,0.00,,,0.00,JAVA,2013-11-06 14:53:00,
2013-11-06 09:59:00,82.9,68.1,30.13,NE,45,0.6,1.7,61,0.00,,,0.00,JAVA,2013-11-06 14:59:00,
2013-11-06 10:04:00,82.9,68.1,30.14,ESE,112,0.4,1.7,61,0.00,,,0.00,JAVA,2013-11-06 15:04:00,
2013-11-06 10:10:00,82.5,68.1,30.13,East,90,1.1,2.7,61,0.00,,,0.00,JAVA,2013-11-06 15:10:00,
2013-11-06 10:15:00,82.3,68.1,30.13,ENE,67,1.8,2.7,60,0.00,,,0.00,JAVA,2013-11-06 15:15:00,
2013-11-06 10:21:00,82.2,68.0,30.13,East,90,2.0,2.7,60,0.00,,,0.00,JAVA,2013-11-06 15:21:00,
2013-11-06 10:26:00,82.1,68.0,30.13,East,90,2.0,3.2,60,0.00,,,0.00,JAVA,2013-11-06 15:26:00,
2013-11-06 10:31:00,82.0,67.9,30.13,SE,135,2.1,3.2,60,0.00,,,0.00,JAVA,2013-11-06 15:31:00,
2013-11-06 10:37:00,81.7,67.8,30.13,SE,135,2.2,3.4,60,0.00,,,0.00,JAVA,2013-11-06 15:37:00,
2013-11-06 10:42:00,81.6,67.7,30.13,East,90,2.2,3.4,60,0.00,,,0.00,JAVA,2013-11-06 15:42:00,
2013-11-06 10:48:00,81.6,67.6,30.13,East,90,2.2,2.9,60,0.00,,,0.00,JAVA,2013-11-06 15:48:00,
2013-11-06 10:53:00,81.8,67.5,30.13,ENE,67,1.6,3.0,60,0.00,,,0.00,JAVA,2013-11-06 15:53:00,
2013-11-06 10:58:00,82.2,67.5,30.13,NE,45,1.5,3.0,60,0.00,,,0.00,JAVA,2013-11-06 15:58:00,
2013-11-06 11:04:00,82.2,67.5,30.13,ESE,112,1.5,2.4,60,0.00,,,0.00,JAVA,2013-11-06 16:04:00,
2013-11-06 11:09:00,82.3,67.4,30.13,East,90,1.5,2.7,60,0.00,,,0.00,JAVA,2013-11-06 16:09:00,
2013-11-06 11:15:00,82.3,67.4,30.12,NNE,22,2.1,3.3,60,0.00,,,0.00,JAVA,2013-11-06 16:15:00,
2013-11-06 11:20:00,82.0,67.4,30.12,SE,135,2.5,3.5,60,0.00,,,0.00,JAVA,2013-11-06 16:20:00,
2013-11-06 11:26:00,81.8,67.4,30.12,ENE,67,1.9,3.5,60,0.00,,,0.00,JAVA,2013-11-06 16:26:00,
2013-11-06 11:31:00,81.8,67.3,30.12,NE,45,1.0,3.2,60,0.00,,,0.00,JAVA,2013-11-06 16:31:00,
2013-11-06 11:36:00,82.3,67.3,30.12,SSE,157,1.3,2.6,60,0.00,,,0.00,JAVA,2013-11-06 16:36:00,
2013-11-06 11:42:00,82.5,67.3,30.12,ESE,112,1.4,2.8,60,0.00,,,0.00,JAVA,2013-11-06 16:42:00,
2013-11-06 11:47:00,82.7,67.3,30.12,SE,135,1.0,2.8,61,0.00,,,0.00,JAVA,2013-11-06 16:47:00,
2013-11-06 11:53:00,82.4,67.3,30.11,NW,315,0.8,2.4,61,0.00,,,0.00,JAVA,2013-11-06 16:53:00,
2013-11-06 11:58:00,82.4,67.3,30.11,SE,135,0.8,2.1,61,0.00,,,0.00,JAVA,2013-11-06 16:58:00,
2013-11-06 12:03:00,82.0,67.3,30.11,North,0,0.7,2.0,61,0.00,,,0.00,JAVA,2013-11-06 17:03:00,
2013-11-06 12:09:00,82.3,67.3,30.11,East,90,0.2,1.3,61,0.00,,,0.00,JAVA,2013-11-06 17:09:00,
2013-11-06 12:14:00,82.9,67.4,30.10,ESE,112,0.3,0.6,61,0.00,,,0.00,JAVA,2013-11-06 17:14:00,
2013-11-06 12:20:00,82.9,67.4,30.10,ENE,67,0.3,0.6,61,0.00,,,0.00,JAVA,2013-11-06 17:20:00,
2013-11-06 12:25:00,82.1,67.5,30.10,East,90,0.4,0.7,61,0.00,,,0.00,JAVA,2013-11-06 17:25:00,
2013-11-06 12:30:00,82.1,67.6,30.10,NNE,22,0.9,1.7,61,0.00,,,0.00,JAVA,2013-11-06 17:30:00,
2013-11-06 12:36:00,82.3,67.6,30.10,ENE,67,0.7,1.7,62,0.00,,,0.00,JAVA,2013-11-06 17:36:00,
2013-11-06 12:41:00,82.1,67.7,30.10,NW,315,0.3,0.9,62,0.00,,,0.00,JAVA,2013-11-06 17:41:00,
2013-11-06 12:47:00,81.8,67.7,30.10,NW,315,0.3,0.7,62,0.00,,,0.00,JAVA,2013-11-06 17:47:00,
2013-11-06 12:52:00,81.8,67.8,30.10,SSE,157,0.2,0.6,62,0.00,,,0.00,JAVA,2013-11-06 17:52:00,
2013-11-06 12:57:00,81.8,67.8,30.09,South,180,0.8,1.6,62,0.00,,,0.00,JAVA,2013-11-06 17:57:00,
2013-11-06 13:03:00,81.6,67.9,30.09,ENE,67,1.5,2.8,63,0.00,,,0.00,JAVA,2013-11-06 18:03:00,
2013-11-06 13:08:00,81.7,67.9,30.09,ENE,67,1.3,2.9,63,0.00,,,0.00,JAVA,2013-11-06 18:08:00,
2013-11-06 13:13:00,82.0,68.0,30.08,North,0,0.5,2.9,63,0.00,,,0.00,JAVA,2013-11-06 18:13:00,
2013-11-06 13:19:00,82.1,68.1,30.08,East,90,0.2,1.1,63,0.00,,,0.00,JAVA,2013-11-06 18:19:00,
2013-11-06 13:24:00,82.4,68.1,30.08,NW,315,0.3,0.9,63,0.00,,,0.00,JAVA,2013-11-06 18:24:00,
2013-11-06 13:30:00,82.2,68.2,30.08,NE,45,0.4,0.9,64,0.00,,,0.00,JAVA,2013-11-06 18:30:00,
2013-11-06 13:35:00,82.0,68.2,30.08,ESE,112,1.0,2.6,64,0.00,,,0.00,JAVA,2013-11-06 18:35:00,
2013-11-06 13:40:00,81.6,68.3,30.08,East,90,1.3,2.6,64,0.00,,,0.00,JAVA,2013-11-06 18:40:00,
2013-11-06 13:46:00,81.5,68.3,30.08,ENE,67,1.5,3.1,64,0.00,,,0.00,JAVA,2013-11-06 18:46:00,
2013-11-06 13:51:00,81.4,68.3,30.08,NNE,22,1.1,3.1,64,0.00,,,0.00,JAVA,2013-11-06 18:51:00,
2013-11-06 13:57:00,81.5,68.3,30.08,NNE,22,0.3,2.0,64,0.00,,,0.00,JAVA,2013-11-06 18:57:00,
2013-11-06 14:02:00,81.5,68.3,30.08,NE,45,0.5,0.7,64,0.00,,,0.00,JAVA,2013-11-06 19:02:00,
2013-11-06 14:07:00,81.4,68.3,30.07,NNW,337,0.6,1.5,65,0.00,,,0.00,JAVA,2013-11-06 19:07:00,
2013-11-06 14:13:00,81.8,68.4,30.07,North,0,0.3,1.5,65,0.00,,,0.00,JAVA,2013-11-06 19:13:00,
2013-11-06 14:18:00,82.3,68.5,30.07,East,90,0.2,0.6,65,0.00,,,0.00,JAVA,2013-11-06 19:18:00,
2013-11-06 14:24:00,82.1,68.5,30.07,SE,135,0.2,0.6,65,0.00,,,0.00,JAVA,2013-11-06 19:24:00,
2013-11-06 14:29:00,82.3,68.6,30.06,North,0,0.2,1.0,65,0.00,,,0.00,JAVA,2013-11-06 19:29:00,
2013-11-06 14:35:00,82.3,68.7,30.07,SE,135,0.5,1.3,65,0.00,,,0.00,JAVA,2013-11-06 19:35:00,
2013-11-06 14:40:00,81.8,68.8,30.07,SE,135,0.8,2.2,65,0.00,,,0.00,JAVA,2013-11-06 19:40:00,
2013-11-06 14:45:00,81.8,68.8,30.06,SSE,157,0.7,2.2,64,0.00,,,0.00,JAVA,2013-11-06 19:45:00,
2013-11-06 14:51:00,82.1,68.9,30.07,SE,135,0.6,1.8,64,0.00,,,0.00,JAVA,2013-11-06 19:51:00,
2013-11-06 14:56:00,81.7,68.9,30.07,North,0,0.9,2.1,64,0.00,,,0.00,JAVA,2013-11-06 19:56:00,
2013-11-06 15:02:00,81.2,68.9,30.06,NE,45,0.6,2.1,64,0.00,,,0.00,JAVA,2013-11-06 20:02:00,
2013-11-06 15:07:00,80.6,68.9,30.07,NNE,22,0.1,0.6,64,0.00,,,0.00,JAVA,2013-11-06 20:07:00,
2013-11-06 15:12:00,80.4,68.8,30.06,NE,45,0.1,0.8,64,0.00,,,0.00,JAVA,2013-11-06 20:12:00,
2013-11-06 15:18:00,80.3,68.7,30.06,NW,315,0.2,0.8,63,0.00,,,0.00,JAVA,2013-11-06 20:18:00,
2013-11-06 15:23:00,79.8,68.6,30.06,NW,315,0.1,0.4,63,0.00,,,0.00,JAVA,2013-11-06 20:23:00,
2013-11-06 15:29:00,79.5,68.5,30.06,SE,135,0.1,0.3,63,0.00,,,0.00,JAVA,2013-11-06 20:29:00,
2013-11-06 15:34:00,79.3,68.4,30.06,East,90,0.0,0.3,63,0.00,,,0.00,JAVA,2013-11-06 20:34:00,
2013-11-06 15:39:00,78.9,68.2,30.06,ENE,67,0.1,0.2,63,0.00,,,0.00,JAVA,2013-11-06 20:39:00,
2013-11-06 15:45:00,78.6,68.1,30.06,SE,135,0.1,0.2,63,0.00,,,0.00,JAVA,2013-11-06 20:45:00,
2013-11-06 15:50:00,78.5,67.9,30.06,ENE,67,0.0,0.0,63,0.00,,,0.00,JAVA,2013-11-06 20:50:00,
2013-11-06 15:56:00,78.4,67.8,30.06,ESE,112,0.0,0.0,63,0.00,,,0.00,JAVA,2013-11-06 20:56:00,
2013-11-06 16:01:00,78.2,67.6,30.06,SSE,157,0.0,0.0,63,0.00,,,0.00,JAVA,2013-11-06 21:01:00,
2013-11-06 16:06:00,78.2,67.3,30.07,South,180,0.0,0.0,63,0.00,,,0.00,JAVA,2013-11-06 21:06:00,
2013-11-06 16:12:00,78.4,67.1,30.06,NE,45,0.1,0.2,64,0.00,,,0.00,JAVA,2013-11-06 21:12:00,
2013-11-06 16:17:00,78.4,66.9,30.06,WSW,247,0.1,0.4,64,0.00,,,0.00,JAVA,2013-11-06 21:17:00,
2013-11-06 16:23:00,78.4,66.7,30.06,SE,135,0.0,0.4,64,0.00,,,0.00,JAVA,2013-11-06 21:23:00,
2013-11-06 16:28:00,78.5,66.5,30.06,North,0,0.2,1.7,65,0.00,,,0.00,JAVA,2013-11-06 21:28:00,
2013-11-06 16:33:00,78.7,66.4,30.07,NE,45,0.3,1.7,65,0.00,,,0.00,JAVA,2013-11-06 21:33:00,
2013-11-06 16:39:00,78.4,66.2,30.06,WNW,292,0.1,0.5,65,0.00,,,0.00,JAVA,2013-11-06 21:39:00,
2013-11-06 16:44:00,77.4,66.1,30.07,East,90,0.1,0.5,66,0.00,,,0.00,JAVA,2013-11-06 21:44:00,
2013-11-06 16:50:00,76.9,65.9,30.07,North,0,0.3,0.8,67,0.00,,,0.00,JAVA,2013-11-06 21:50:00,
2013-11-06 16:55:00,76.4,65.8,30.07,NNE,22,0.3,0.8,67,0.00,,,0.00,JAVA,2013-11-06 21:55:00,
2013-11-06 17:00:00,76.0,65.7,30.07,NNW,337,0.2,0.6,68,0.00,,,0.00,JAVA,2013-11-06 22:00:00,
2013-11-06 17:06:00,75.7,65.6,30.07,NNW,337,0.1,0.6,69,0.00,,,0.00,JAVA,2013-11-06 22:06:00,
2013-11-06 17:11:00,75.5,65.5,30.07,South,180,0.0,0.2,70,0.00,,,0.00,JAVA,2013-11-06 22:11:00,
2013-11-06 17:17:00,75.5,65.5,30.07,North,0,0.0,0.0,71,0.00,,,0.00,JAVA,2013-11-06 22:17:00,
2013-11-06 17:22:00,75.4,65.5,30.07,South,180,0.0,0.0,72,0.00,,,0.00,JAVA,2013-11-06 22:22:00,
2013-11-06 17:27:00,75.3,65.5,30.08,NW,315,0.0,0.0,73,0.00,,,0.00,JAVA,2013-11-06 22:27:00,
2013-11-06 17:33:00,74.9,65.5,30.08,NE,45,0.0,0.0,73,0.00,,,0.00,JAVA,2013-11-06 22:33:00,
2013-11-06 17:38:00,74.4,65.5,30.08,NNW,337,0.0,0.0,74,0.00,,,0.00,JAVA,2013-11-06 22:38:00,
2013-11-06 17:44:00,74.1,65.6,30.08,North,0,0.0,0.0,75,0.00,,,0.00,JAVA,2013-11-06 22:44:00,
2013-11-06 17:49:00,73.9,65.6,30.08,NNE,22,0.0,0.0,76,0.00,,,0.00,JAVA,2013-11-06 22:49:00,
2013-11-06 17:54:00,73.6,65.7,30.08,West,270,0.0,0.0,77,0.00,,,0.00,JAVA,2013-11-06 22:54:00,
2013-11-06 18:00:00,73.5,65.7,30.08,NW,315,0.0,0.0,78,0.00,,,0.00,JAVA,2013-11-06 23:00:00,
2013-11-06 18:05:00,73.4,65.8,30.08,NNW,337,0.0,0.0,78,0.00,,,0.00,JAVA,2013-11-06 23:05:00,
2013-11-06 18:11:00,73.4,65.8,30.08,NNE,22,0.0,0.0,79,0.00,,,0.00,JAVA,2013-11-06 23:11:00,
2013-11-06 18:16:00,73.4,65.9,30.08,NNW,337,0.0,0.0,80,0.00,,,0.00,JAVA,2013-11-06 23:16:00,
2013-11-06 18:21:00,73.4,65.9,30.08,NE,45,0.0,0.0,81,0.00,,,0.00,JAVA,2013-11-06 23:21:00,
2013-11-06 18:27:00,73.4,66.0,30.08,North,0,0.0,0.0,82,0.00,,,0.00,JAVA,2013-11-06 23:27:00,
2013-11-06 18:32:00,73.3,66.1,30.09,NNW,337,0.0,0.0,83,0.00,,,0.00,JAVA,2013-11-06 23:32:00,
2013-11-06 18:38:00,73.2,66.2,30.08,North,0,0.0,0.0,84,0.00,,,0.00,JAVA,2013-11-06 23:38:00,
2013-11-06 18:43:00,73.1,66.4,30.08,North,0,0.0,0.0,84,0.00,,,0.00,JAVA,2013-11-06 23:43:00,
2013-11-06 18:48:00,73.1,66.5,30.08,NNE,22,0.0,0.0,84,0.00,,,0.00,JAVA,2013-11-06 23:48:00,
2013-11-06 18:54:00,73.2,66.7,30.08,North,0,0.0,0.0,85,0.00,,,0.00,JAVA,2013-11-06 23:54:00,
2013-11-06 18:59:00,73.3,66.9,30.08,NNW,337,0.0,0.0,85,0.00,,,0.00,JAVA,2013-11-06 23:59:00,
2013-11-06 19:05:00,73.4,67.0,30.08,North,0,0.0,0.0,86,0.00,,,0.00,JAVA,2013-11-07 00:05:00,
2013-11-06 19:10:00,73.5,67.2,30.08,North,0,0.0,0.0,86,0.00,,,0.00,JAVA,2013-11-07 00:10:00,
2013-11-06 19:15:00,73.5,67.4,30.07,NW,315,0.0,0.0,87,0.00,,,0.00,JAVA,2013-11-07 00:15:00,
2013-11-06 19:21:00,73.5,67.5,30.08,NW,315,0.0,0.0,87,0.00,,,0.00,JAVA,2013-11-07 00:21:00,
2013-11-06 19:26:00,73.4,67.7,30.08,North,0,0.0,0.0,87,0.00,,,0.00,JAVA,2013-11-07 00:26:00,
2013-11-06 19:32:00,73.4,67.9,30.09,NW,315,0.0,0.0,87,0.00,,,0.00,JAVA,2013-11-07 00:32:00,
2013-11-06 19:37:00,73.4,68.1,30.08,NW,315,0.0,0.0,88,0.00,,,0.00,JAVA,2013-11-07 00:37:00,
2013-11-06 19:42:00,73.3,68.2,30.08,NNW,337,0.0,0.0,88,0.00,,,0.00,JAVA,2013-11-07 00:42:00,
2013-11-06 19:48:00,73.2,68.4,30.08,NNW,337,0.0,0.0,88,0.00,,,0.00,JAVA,2013-11-07 00:48:00,
2013-11-06 19:53:00,73.2,68.6,30.08,NW,315,0.0,0.0,88,0.00,,,0.00,JAVA,2013-11-07 00:53:00,
2013-11-06 19:59:00,73.2,68.7,30.08,NNE,22,0.0,0.0,88,0.00,,,0.00,JAVA,2013-11-07 00:59:00,
2013-11-06 20:04:00,73.2,68.8,30.08,NNW,337,0.0,0.0,88,0.00,,,0.00,JAVA,2013-11-07 01:04:00,
2013-11-06 20:09:00,73.3,68.9,30.08,North,0,0.0,0.0,88,0.00,,,0.00,JAVA,2013-11-07 01:09:00,
2013-11-06 20:15:00,73.3,69.0,30.08,North,0,0.0,0.0,88,0.00,,,0.00,JAVA,2013-11-07 01:15:00,
2013-11-06 20:20:00,73.4,69.1,30.08,North,0,0.0,0.0,88,0.00,,,0.00,JAVA,2013-11-07 01:20:00,
2013-11-06 20:26:00,73.4,69.2,30.09,North,0,0.0,0.0,88,0.00,,,0.00,JAVA,2013-11-07 01:26:00,
2013-11-06 20:31:00,73.5,69.3,30.08,NNW,337,0.0,0.0,88,0.00,,,0.00,JAVA,2013-11-07 01:31:00,
2013-11-06 20:36:00,73.6,69.4,30.09,NE,45,0.1,0.7,88,0.00,,,0.00,JAVA,2013-11-07 01:36:00,
2013-11-06 20:42:00,74.0,69.5,30.09,WNW,292,0.1,0.7,88,0.00,,,0.00,JAVA,2013-11-07 01:42:00,
2013-11-06 20:47:00,74.0,69.5,30.09,NW,315,0.1,0.3,88,0.00,,,0.00,JAVA,2013-11-07 01:47:00,
2013-11-06 20:53:00,73.9,69.6,30.09,NNE,22,0.1,0.3,87,0.00,,,0.00,JAVA,2013-11-07 01:53:00,
2013-11-06 20:58:00,73.9,69.6,30.09,NNE,22,0.0,0.2,87,0.00,,,0.00,JAVA,2013-11-07 01:58:00,
2013-11-06 21:03:00,74.0,69.7,30.09,North,0,0.0,0.0,87,0.00,,,0.00,JAVA,2013-11-07 02:03:00,
2013-11-06 21:09:00,74.0,69.7,30.09,NW,315,0.0,0.1,87,0.00,,,0.00,JAVA,2013-11-07 02:09:00,
2013-11-06 21:14:00,74.0,69.7,30.10,North,0,0.0,0.1,87,0.00,,,0.00,JAVA,2013-11-07 02:14:00,
2013-11-06 21:20:00,74.1,69.7,30.09,NE,45,0.0,0.0,87,0.00,,,0.00,JAVA,2013-11-07 02:20:00,
2013-11-06 21:25:00,74.1,69.8,30.09,NW,315,0.0,0.0,87,0.00,,,0.00,JAVA,2013-11-07 02:25:00,
2013-11-06 21:30:00,74.2,69.8,30.09,NNW,337,0.0,0.0,86,0.00,,,0.00,JAVA,2013-11-07 02:30:00,
2013-11-06 21:36:00,74.2,69.8,30.09,SW,225,0.0,0.0,86,0.00,,,0.00,JAVA,2013-11-07 02:36:00,
2013-11-06 21:41:00,74.3,69.8,30.09,NNE,22,0.0,0.0,86,0.00,,,0.00,JAVA,2013-11-07 02:41:00,
2013-11-06 21:46:00,74.2,69.9,30.09,East,90,0.0,0.1,87,0.00,,,0.00,JAVA,2013-11-07 02:46:00,
2013-11-06 21:52:00,74.0,69.9,30.09,NNE,22,0.0,0.1,86,0.00,,,0.00,JAVA,2013-11-07 02:52:00,
2013-11-06 21:57:00,73.9,69.9,30.09,NE,45,0.0,0.1,86,0.00,,,0.00,JAVA,2013-11-07 02:57:00,
2013-11-06 22:03:00,73.9,69.9,30.09,WNW,292,0.0,0.0,86,0.00,,,0.00,JAVA,2013-11-07 03:03:00,
2013-11-06 22:08:00,73.5,69.9,30.09,NNE,22,0.0,0.0,86,0.00,,,0.00,JAVA,2013-11-07 03:08:00,
2013-11-06 22:13:00,73.4,69.8,30.09,North,0,0.0,0.0,86,0.00,,,0.00,JAVA,2013-11-07 03:13:00,
2013-11-06 22:19:00,73.3,69.8,30.09,North,0,0.0,0.0,86,0.00,,,0.00,JAVA,2013-11-07 03:19:00,
2013-11-06 22:24:00,73.1,69.8,30.08,NNW,337,0.0,0.1,86,0.00,,,0.00,JAVA,2013-11-07 03:24:00,
2013-11-06 22:30:00,73.6,69.7,30.09,NNE,22,0.0,0.1,86,0.00,,,0.00,JAVA,2013-11-07 03:30:00,
2013-11-06 22:35:00,74.0,69.7,30.09,NNE,22,0.1,0.1,87,0.00,,,0.00,JAVA,2013-11-07 03:35:00,
2013-11-06 22:40:00,73.9,69.7,30.09,North,0,0.0,0.1,87,0.00,,,0.00,JAVA,2013-11-07 03:40:00,
2013-11-06 22:46:00,73.6,69.7,30.09,North,0,0.0,0.1,87,0.00,,,0.00,JAVA,2013-11-07 03:46:00,
2013-11-06 22:51:00,73.3,69.7,30.09,NNW,337,0.0,0.2,87,0.00,,,0.00,JAVA,2013-11-07 03:51:00,
2013-11-06 22:57:00,73.1,69.6,30.08,NNE,22,0.1,0.2,88,0.00,,,0.00,JAVA,2013-11-07 03:57:00,
2013-11-06 23:02:00,72.9,69.6,30.08,NNE,22,0.1,0.2,88,0.00,,,0.00,JAVA,2013-11-07 04:02:00,
2013-11-06 23:07:00,72.8,69.6,30.09,North,0,0.0,0.2,88,0.00,,,0.00,JAVA,2013-11-07 04:07:00,
2013-11-06 23:13:00,72.6,69.5,30.08,North,0,0.0,0.0,88,0.00,,,0.00,JAVA,2013-11-07 04:13:00,
2013-11-06 23:18:00,72.5,69.5,30.08,North,0,0.0,0.0,89,0.00,,,0.00,JAVA,2013-11-07 04:18:00,
2013-11-06 23:24:00,72.5,69.5,30.08,NW,315,0.0,0.0,89,0.00,,,0.00,JAVA,2013-11-07 04:24:00,
2013-11-06 23:29:00,72.4,69.4,30.08,North,0,0.0,0.0,89,0.00,,,0.00,JAVA,2013-11-07 04:29:00,
2013-11-06 23:34:00,72.4,69.4,30.08,North,0,0.0,0.0,89,0.00,,,0.00,JAVA,2013-11-07 04:34:00,
2013-11-06 23:40:00,72.4,69.3,30.09,North,0,0.0,0.0,89,0.00,,,0.00,JAVA,2013-11-07 04:40:00,
2013-11-06 23:45:00,72.4,69.3,30.08,NNW,337,0.0,0.0,90,0.00,,,0.00,JAVA,2013-11-07 04:45:00,
2013-11-06 23:50:00,72.3,69.3,30.08,NE,45,0.0,0.0,90,0.00,,,0.00,JAVA,2013-11-07 04:50:00,
2013-11-06 23:56:00,72.1,69.3,30.08,NE,45,0.0,0.0,90,0.00,,,0.00,JAVA,2013-11-07 04:56:00,